This is the latest recevied weather packets stored in our database for station/object DB7GV-8. If no packets are shown the sender has not sent any weather packets the latest 10 day(s).
| Time | Temp. | Humidity | Pressure | Rain* | Wind** | Luminosity | Snow |
|---|---|---|---|---|---|---|---|
| 1777940377 | 12.22° C | 79% | 1013 hPa | - | - | - | - |
| 1777939471 | 12.78° C | 78% | 1013.2 hPa | - | - | - | - |
| 1777938566 | 13.33° C | 77% | 1013.4 hPa | - | - | - | - |
| 1777937660 | 13.33° C | 77% | 1013.6 hPa | - | - | - | - |
| 1777936755 | 13.33° C | 77% | 1013.5 hPa | - | - | - | - |
| 1777935850 | 13.33° C | 76% | 1013.5 hPa | - | - | - | - |
| 1777934945 | 13.33° C | 75% | 1013.5 hPa | - | - | - | - |
| 1777934039 | 13.89° C | 75% | 1013.6 hPa | - | - | - | - |
| 1777933133 | 13.89° C | 74% | 1013.7 hPa | - | - | - | - |
| 1777932228 | 13.89° C | 73% | 1013.8 hPa | - | - | - | - |
| 1777931322 | 13.89° C | 73% | 1014 hPa | - | - | - | - |
| 1777930417 | 13.89° C | 72% | 1014.1 hPa | - | - | - | - |
| 1777929512 | 14.44° C | 71% | 1014.1 hPa | - | - | - | - |
| 1777928606 | 14.44° C | 70% | 1014.1 hPa | - | - | - | - |
| 1777927701 | 14.44° C | 69% | 1014.1 hPa | - | - | - | - |
| 1777926796 | 15° C | 68% | 1014.1 hPa | - | - | - | - |
| 1777925890 | 15° C | 68% | 1014.1 hPa | - | - | - | - |
| 1777924985 | 15° C | 67% | 1013.9 hPa | - | - | - | - |
| 1777924079 | 15° C | 65% | 1013.9 hPa | - | - | - | - |
| 1777923174 | 15.56° C | 63% | 1013.8 hPa | - | - | - | - |
| 1777922268 | 16.11° C | 61% | 1013.8 hPa | - | - | - | - |
| 1777921363 | 16.11° C | 59% | 1013.7 hPa | - | - | - | - |
| 1777920457 | 16.67° C | 57% | 1013.6 hPa | - | - | - | - |
| 1777919552 | 17.22° C | 56% | 1013.7 hPa | - | - | - | - |
| 1777918646 | 17.78° C | 54% | 1013.8 hPa | - | - | - | - |
* Rain since midnight (hover to see other rain measurements)
** Current wind speed in m/s (hover to see current wind gust speed)